Time,TemperatureF,DewpointF,PressureIn,WindDirection,WindDirectionDegrees,WindSpeedMPH,WindSpeedGustMPH,Humidity,HourlyPrecipIn,Conditions,Clouds,dailyrainin,SoftwareType,DateUTC
2013-04-18 00:01:00,42.3,32.1,30.28,East,99,1.5,1.5,67,0.00,,---,0.00,VWS V14.01,2013-04-18 04:01:00,
2013-04-18 00:02:00,42.3,32.1,30.28,East,99,0.0,1.5,67,0.00,,---,0.00,VWS V14.01,2013-04-18 04:02:00,
2013-04-18 00:07:00,42.2,32.0,30.28,East,99,0.0,1.5,67,0.00,,---,0.00,VWS V14.01,2013-04-18 04:07:00,
2013-04-18 00:12:00,42.2,32.0,30.28,East,99,1.5,1.5,67,0.00,,---,0.00,VWS V14.01,2013-04-18 04:12:00,
2013-04-18 00:17:00,42.2,32.0,30.26,East,99,0.0,3.0,67,0.00,,---,0.00,VWS V14.01,2013-04-18 04:17:00,
2013-04-18 00:22:00,42.3,32.1,30.26,East,99,0.0,1.5,67,0.00,,---,0.00,VWS V14.01,2013-04-18 04:22:00,
2013-04-18 00:27:00,42.3,32.1,30.26,East,99,3.0,3.0,67,0.00,,---,0.00,VWS V14.01,2013-04-18 04:27:00,
2013-04-18 00:32:00,42.3,32.1,30.23,ESE,104,0.0,4.5,67,0.00,,---,0.00,VWS V14.01,2013-04-18 04:32:00,
2013-04-18 00:37:00,42.4,32.2,30.23,ESE,104,0.0,4.5,67,0.00,,---,0.00,VWS V14.01,2013-04-18 04:37:00,
2013-04-18 00:42:00,42.6,32.0,30.23,ESE,106,1.5,1.5,66,0.00,,---,0.00,VWS V14.01,2013-04-18 04:42:00,
2013-04-18 00:47:00,42.8,32.2,30.24,ESE,106,0.0,3.0,66,0.00,,---,0.00,VWS V14.01,2013-04-18 04:47:00,
2013-04-18 00:52:00,42.9,32.3,30.24,ESE,106,0.0,0.0,66,0.00,,---,0.00,VWS V14.01,2013-04-18 04:52:00,
2013-04-18 00:57:00,42.9,32.3,30.24,ESE,106,0.0,0.0,66,0.00,,---,0.00,VWS V14.01,2013-04-18 04:57:00,
2013-04-18 01:02:00,42.9,32.3,30.26,ESE,106,0.0,0.0,66,0.00,,---,0.00,VWS V14.01,2013-04-18 05:02:00,
2013-04-18 01:07:00,42.8,32.2,30.26,ESE,106,0.0,1.5,66,0.00,,---,0.00,VWS V14.01,2013-04-18 05:07:00,
2013-04-18 01:12:00,42.8,32.6,30.26,ESE,106,1.5,1.5,67,0.00,,---,0.00,VWS V14.01,2013-04-18 05:12:00,
2013-04-18 01:17:00,42.8,33.0,30.24,ESE,106,3.0,3.0,68,0.00,,---,0.00,VWS V14.01,2013-04-18 05:17:00,
2013-04-18 01:22:00,42.8,33.0,30.24,ESE,106,0.0,3.0,68,0.00,,---,0.00,VWS V14.01,2013-04-18 05:22:00,
2013-04-18 01:27:00,42.8,33.0,30.24,ESE,106,0.0,3.0,68,0.00,,---,0.00,VWS V14.01,2013-04-18 05:27:00,
2013-04-18 01:32:00,42.9,33.1,30.24,ESE,106,0.0,0.0,68,0.00,,---,0.00,VWS V14.01,2013-04-18 05:32:00,
2013-04-18 01:37:00,43.0,33.2,30.24,ESE,106,0.0,3.0,68,0.00,,---,0.00,VWS V14.01,2013-04-18 05:37:00,
2013-04-18 01:42:00,43.0,33.2,30.24,ESE,106,3.0,3.0,68,0.00,,---,0.00,VWS V14.01,2013-04-18 05:42:00,
2013-04-18 01:47:00,43.0,33.2,30.22,ESE,123,0.0,4.5,68,0.00,,---,0.00,VWS V14.01,2013-04-18 05:47:00,
2013-04-18 01:52:00,43.1,33.3,30.22,ESE,123,0.0,0.0,68,0.00,,---,0.00,VWS V14.01,2013-04-18 05:52:00,
2013-04-18 01:57:00,43.2,33.4,30.22,ESE,123,1.5,4.5,68,0.00,,---,0.00,VWS V14.01,2013-04-18 05:57:00,
2013-04-18 02:02:00,43.3,33.5,30.22,ESE,123,1.5,1.5,68,0.00,,---,0.00,VWS V14.01,2013-04-18 06:02:00,
2013-04-18 02:07:00,43.3,33.1,30.22,ESE,122,1.5,3.0,67,0.00,,---,0.00,VWS V14.01,2013-04-18 06:07:00,
2013-04-18 02:12:00,43.3,33.5,30.22,ESE,122,1.5,3.0,68,0.00,,---,0.00,VWS V14.01,2013-04-18 06:12:00,
2013-04-18 02:17:00,43.3,33.5,30.19,East,100,3.0,4.5,68,0.00,,---,0.00,VWS V14.01,2013-04-18 06:17:00,
2013-04-18 02:22:00,43.4,33.2,30.19,East,95,3.0,3.0,67,0.00,,---,0.00,VWS V14.01,2013-04-18 06:22:00,
2013-04-18 02:27:00,43.5,33.3,30.19,East,99,1.5,7.5,67,0.00,,---,0.00,VWS V14.01,2013-04-18 06:27:00,
2013-04-18 02:32:00,43.6,33.4,30.17,East,96,4.5,7.5,67,0.00,,---,0.00,VWS V14.01,2013-04-18 06:32:00,
2013-04-18 02:37:00,43.7,33.5,30.17,SSE,148,4.5,7.5,67,0.00,,---,0.00,VWS V14.01,2013-04-18 06:37:00,
2013-04-18 02:42:00,43.9,33.7,30.17,ESE,116,3.0,3.0,67,0.00,,---,0.00,VWS V14.01,2013-04-18 06:42:00,
2013-04-18 02:47:00,44.1,33.9,30.17,ESE,104,3.0,4.5,67,0.00,,---,0.00,VWS V14.01,2013-04-18 06:47:00,
2013-04-18 02:52:00,44.3,34.0,30.17,ESE,121,4.5,4.5,67,0.00,,---,0.00,VWS V14.01,2013-04-18 06:52:00,
2013-04-18 02:57:00,44.5,34.2,30.17,ESE,114,1.5,6.0,67,0.00,,---,0.00,VWS V14.01,2013-04-18 06:57:00,
2013-04-18 03:02:00,44.7,34.0,30.16,SE,125,3.0,4.5,66,0.00,,---,0.00,VWS V14.01,2013-04-18 07:02:00,
2013-04-18 03:07:00,44.9,34.2,30.16,East,99,3.0,6.0,66,0.00,,---,0.00,VWS V14.01,2013-04-18 07:07:00,
2013-04-18 03:12:00,45.0,34.3,30.16,ESE,116,1.5,4.5,66,0.00,,---,0.00,VWS V14.01,2013-04-18 07:12:00,
2013-04-18 03:18:00,45.0,34.3,30.14,ESE,120,3.0,4.5,66,0.00,,---,0.00,VWS V14.01,2013-04-18 07:18:00,
2013-04-18 03:23:00,45.1,34.4,30.14,ENE,75,1.5,3.0,66,0.00,,---,0.00,VWS V14.01,2013-04-18 07:23:00,
2013-04-18 03:28:00,45.2,34.2,30.14,ESE,113,0.0,4.5,65,0.00,,---,0.00,VWS V14.01,2013-04-18 07:28:00,
2013-04-18 03:33:00,45.3,34.6,30.15,ENE,66,3.0,4.5,66,0.00,,---,0.00,VWS V14.01,2013-04-18 07:33:00,
2013-04-18 03:38:00,45.3,34.6,30.15,East,101,3.0,4.5,66,0.00,,---,0.00,VWS V14.01,2013-04-18 07:38:00,
2013-04-18 03:43:00,45.4,34.3,30.15,East,101,0.0,3.0,65,0.00,,---,0.00,VWS V14.01,2013-04-18 07:43:00,
2013-04-18 03:48:00,45.5,34.8,30.15,East,87,0.0,4.5,66,0.00,,---,0.00,VWS V14.01,2013-04-18 07:48:00,
2013-04-18 03:53:00,45.6,34.5,30.15,ESE,117,3.0,4.5,65,0.00,,---,0.00,VWS V14.01,2013-04-18 07:53:00,
2013-04-18 03:58:00,45.7,35.0,30.15,East,87,3.0,6.0,66,0.00,,---,0.00,VWS V14.01,2013-04-18 07:58:00,
2013-04-18 04:03:00,45.7,35.0,30.14,SE,138,3.0,4.5,66,0.00,,---,0.00,VWS V14.01,2013-04-18 08:03:00,
2013-04-18 04:08:00,45.7,35.0,30.14,East,85,3.0,6.0,66,0.00,,---,0.00,VWS V14.01,2013-04-18 08:08:00,
2013-04-18 04:13:00,45.7,35.4,30.14,SE,131,3.0,4.5,67,0.00,,---,0.00,VWS V14.01,2013-04-18 08:13:00,
2013-04-18 04:18:00,45.7,35.0,30.12,NE,56,6.0,9.0,66,0.00,,---,0.00,VWS V14.01,2013-04-18 08:18:00,
2013-04-18 04:23:00,45.7,35.0,30.12,ESE,106,4.5,6.0,66,0.00,,---,0.00,VWS V14.01,2013-04-18 08:23:00,
2013-04-18 04:28:00,45.7,35.4,30.12,East,96,4.5,7.5,67,0.00,,---,0.00,VWS V14.01,2013-04-18 08:28:00,
2013-04-18 04:33:00,45.7,35.4,30.12,East,95,3.0,7.5,67,0.00,,---,0.00,VWS V14.01,2013-04-18 08:33:00,
2013-04-18 04:38:00,45.7,35.0,30.12,East,94,3.0,6.0,66,0.00,,---,0.00,VWS V14.01,2013-04-18 08:38:00,
2013-04-18 04:43:00,45.7,35.4,30.12,East,94,3.0,7.5,67,0.00,,---,0.00,VWS V14.01,2013-04-18 08:43:00,
2013-04-18 04:48:00,45.7,35.4,30.12,East,96,3.0,7.5,67,0.00,,---,0.00,VWS V14.01,2013-04-18 08:48:00,
2013-04-18 04:53:00,45.6,35.3,30.12,ENE,74,4.5,9.0,67,0.00,,---,0.00,VWS V14.01,2013-04-18 08:53:00,
2013-04-18 04:58:00,45.6,35.3,30.12,East,80,3.0,9.0,67,0.00,,---,0.00,VWS V14.01,2013-04-18 08:58:00,
2013-04-18 05:03:00,45.6,35.3,30.12,ESE,109,3.0,6.0,67,0.00,,---,0.00,VWS V14.01,2013-04-18 09:03:00,
2013-04-18 05:08:00,45.8,35.5,30.12,East,94,3.0,7.5,67,0.00,,---,0.00,VWS V14.01,2013-04-18 09:08:00,
2013-04-18 05:13:00,45.8,35.5,30.12,East,98,4.5,9.0,67,0.00,,---,0.00,VWS V14.01,2013-04-18 09:13:00,
2013-04-18 05:18:00,45.7,36.5,30.11,ESE,109,4.5,9.0,70,0.00,,---,0.00,VWS V14.01,2013-04-18 09:18:00,
2013-04-18 05:23:00,45.4,36.2,30.11,ESE,116,3.0,7.5,70,0.00,,---,0.00,VWS V14.01,2013-04-18 09:23:00,
2013-04-18 05:28:00,45.3,36.5,30.11,ESE,120,4.5,7.5,71,0.00,,---,0.00,VWS V14.01,2013-04-18 09:28:00,
2013-04-18 05:33:00,45.4,35.8,30.09,SE,140,4.5,9.0,69,0.00,,---,0.00,VWS V14.01,2013-04-18 09:33:00,
2013-04-18 05:38:00,45.8,36.2,30.09,SE,126,4.5,9.0,69,0.00,,---,0.00,VWS V14.01,2013-04-18 09:38:00,
2013-04-18 05:43:00,46.0,36.4,30.09,SSE,159,6.0,7.5,69,0.00,,---,0.00,VWS V14.01,2013-04-18 09:43:00,
2013-04-18 05:48:00,46.1,36.5,30.09,SE,130,6.0,7.5,69,0.00,,---,0.00,VWS V14.01,2013-04-18 09:48:00,
2013-04-18 05:53:00,46.4,36.0,30.09,ESE,113,10.5,12.0,67,0.00,,---,0.00,VWS V14.01,2013-04-18 09:53:00,
2013-04-18 05:58:00,46.5,36.2,30.09,SE,138,3.0,13.5,67,0.00,,---,0.00,VWS V14.01,2013-04-18 09:58:00,
2013-04-18 06:03:00,46.6,36.2,30.09,SE,141,1.5,9.0,67,0.00,,---,0.00,VWS V14.01,2013-04-18 10:03:00,
2013-04-18 06:08:00,46.7,36.7,30.09,ESE,108,1.5,10.5,68,0.00,,---,0.00,VWS V14.01,2013-04-18 10:08:00,
2013-04-18 06:13:00,46.9,36.5,30.09,ESE,110,4.5,6.0,67,0.00,,---,0.00,VWS V14.01,2013-04-18 10:13:00,
2013-04-18 06:18:00,47.1,36.7,30.08,SE,137,3.0,15.0,67,0.00,,---,0.00,VWS V14.01,2013-04-18 10:18:00,
2013-04-18 06:23:00,47.2,36.8,30.08,East,92,3.0,6.0,67,0.00,,---,0.00,VWS V14.01,2013-04-18 10:23:00,
2013-04-18 06:28:00,47.2,36.8,30.08,SSE,156,4.5,7.5,67,0.00,,---,0.00,VWS V14.01,2013-04-18 10:28:00,
2013-04-18 06:33:00,47.3,37.3,30.07,ESE,104,4.5,6.0,68,0.00,,---,0.00,VWS V14.01,2013-04-18 10:33:00,
2013-04-18 06:38:00,47.1,38.2,30.07,SE,128,3.0,7.5,71,0.01,,---,0.01,VWS V14.01,2013-04-18 10:38:00,
2013-04-18 06:43:00,46.7,38.5,30.07,SE,134,1.5,4.5,73,0.01,,---,0.01,VWS V14.01,2013-04-18 10:43:00,
2013-04-18 06:48:00,46.5,38.3,30.06,SE,135,0.0,10.5,73,0.01,,---,0.01,VWS V14.01,2013-04-18 10:48:00,
2013-04-18 06:53:00,46.6,38.4,30.06,ESE,119,4.5,9.0,73,0.01,,---,0.01,VWS V14.01,2013-04-18 10:53:00,
2013-04-18 06:58:00,47.0,38.5,30.06,ESE,113,7.5,9.0,72,0.01,,---,0.01,VWS V14.01,2013-04-18 10:58:00,
2013-04-18 07:03:00,47.2,38.7,30.06,SE,144,15.0,16.5,72,0.01,,---,0.01,VWS V14.01,2013-04-18 11:03:00,
2013-04-18 07:08:00,47.4,38.8,30.06,ESE,121,4.5,16.5,72,0.01,,---,0.01,VWS V14.01,2013-04-18 11:08:00,
2013-04-18 07:13:00,47.5,38.6,30.06,SSE,154,4.5,6.0,71,0.01,,---,0.01,VWS V14.01,2013-04-18 11:13:00,
2013-04-18 07:19:00,47.7,38.8,30.05,ESE,112,3.0,7.5,71,0.01,,---,0.01,VWS V14.01,2013-04-18 11:19:00,
2013-04-18 07:24:00,48.0,38.7,30.05,SSE,151,3.0,9.0,70,0.01,,---,0.01,VWS V14.01,2013-04-18 11:24:00,
2013-04-18 07:29:00,48.3,39.0,30.05,South,178,7.5,13.5,70,0.01,,---,0.01,VWS V14.01,2013-04-18 11:29:00,
2013-04-18 07:34:00,48.6,39.3,30.05,South,182,4.5,13.5,70,0.01,,---,0.01,VWS V14.01,2013-04-18 11:34:00,
2013-04-18 07:39:00,48.8,39.5,30.05,ESE,121,3.0,13.5,70,0.01,,---,0.01,VWS V14.01,2013-04-18 11:39:00,
2013-04-18 07:44:00,48.8,39.8,30.05,SSE,163,4.5,13.5,71,0.00,,---,0.01,VWS V14.01,2013-04-18 11:44:00,
2013-04-18 07:49:00,48.8,39.8,30.05,SSE,158,10.5,16.5,71,0.00,,---,0.01,VWS V14.01,2013-04-18 11:49:00,
2013-04-18 07:54:00,48.9,40.3,30.05,SE,144,7.5,18.0,72,0.00,,---,0.01,VWS V14.01,2013-04-18 11:54:00,
2013-04-18 07:59:00,49.1,40.5,30.05,SE,134,4.5,18.0,72,0.00,,---,0.01,VWS V14.01,2013-04-18 11:59:00,
2013-04-18 08:04:00,49.3,40.3,30.04,SE,127,6.0,10.5,71,0.00,,---,0.01,VWS V14.01,2013-04-18 12:04:00,
2013-04-18 08:09:00,49.6,41.0,30.04,SE,140,1.5,10.5,72,0.00,,---,0.01,VWS V14.01,2013-04-18 12:09:00,
2013-04-18 08:14:00,49.8,40.8,30.04,SE,134,3.0,13.5,71,0.00,,---,0.01,VWS V14.01,2013-04-18 12:14:00,
2013-04-18 08:19:00,49.9,40.9,30.04,SE,139,3.0,13.5,71,0.00,,---,0.01,VWS V14.01,2013-04-18 12:19:00,
2013-04-18 08:24:00,50.0,41.3,30.04,ESE,113,1.5,7.5,72,0.00,,---,0.01,VWS V14.01,2013-04-18 12:24:00,
2013-04-18 08:29:00,50.2,41.5,30.04,SSE,162,6.0,15.0,72,0.00,,---,0.01,VWS V14.01,2013-04-18 12:29:00,
2013-04-18 08:34:00,50.4,41.7,30.03,ESE,105,6.0,13.5,72,0.00,,---,0.01,VWS V14.01,2013-04-18 12:34:00,
2013-04-18 08:39:00,50.7,41.7,30.03,SSE,158,4.5,13.5,71,0.00,,---,0.01,VWS V14.01,2013-04-18 12:39:00,
2013-04-18 08:44:00,51.1,42.0,30.03,South,191,9.0,9.0,71,0.00,,---,0.01,VWS V14.01,2013-04-18 12:44:00,
2013-04-18 08:49:00,51.4,42.0,30.02,SE,125,4.5,15.0,70,0.00,,---,0.01,VWS V14.01,2013-04-18 12:49:00,
2013-04-18 08:54:00,51.7,42.2,30.02,SSE,161,9.0,10.5,70,0.00,,---,0.01,VWS V14.01,2013-04-18 12:54:00,
2013-04-18 08:59:00,52.1,42.2,30.02,SSE,158,6.0,15.0,69,0.00,,---,0.01,VWS V14.01,2013-04-18 12:59:00,
2013-04-18 09:04:00,52.6,42.7,30.01,SSE,149,10.5,13.5,69,0.00,,---,0.01,VWS V14.01,2013-04-18 13:04:00,
2013-04-18 09:09:00,53.1,43.2,30.01,South,191,6.0,13.5,69,0.00,,---,0.01,VWS V14.01,2013-04-18 13:09:00,
2013-04-18 09:14:00,53.5,43.6,30.01,SSE,159,3.0,12.0,69,0.00,,---,0.01,VWS V14.01,2013-04-18 13:14:00,
2013-04-18 09:19:00,54.1,44.2,30.01,SSE,158,6.0,12.0,69,0.00,,---,0.01,VWS V14.01,2013-04-18 13:19:00,
2013-04-18 09:24:00,54.8,44.8,30.01,SSE,147,18.0,18.0,69,0.00,,---,0.01,VWS V14.01,2013-04-18 13:24:00,
2013-04-18 09:29:00,55.6,45.6,30.01,SE,138,4.5,18.0,69,0.00,,---,0.01,VWS V14.01,2013-04-18 13:29:00,
2013-04-18 09:34:00,56.3,46.3,29.99,SSE,167,7.5,15.0,69,0.00,,---,0.01,VWS V14.01,2013-04-18 13:34:00,
2013-04-18 09:39:00,57.0,46.9,29.99,SSE,165,7.5,15.0,69,0.00,,---,0.01,VWS V14.01,2013-04-18 13:39:00,
2013-04-18 09:44:00,58.2,47.7,29.99,SE,141,10.5,13.5,68,0.00,,---,0.01,VWS V14.01,2013-04-18 13:44:00,
2013-04-18 09:49:00,59.5,48.9,29.98,South,180,7.5,24.0,68,0.00,,---,0.01,VWS V14.01,2013-04-18 13:49:00,
2013-04-18 09:54:00,60.6,50.0,29.98,South,177,4.5,18.0,68,0.00,,---,0.01,VWS V14.01,2013-04-18 13:54:00,
2013-04-18 09:59:00,62.0,50.9,29.98,SE,145,10.5,18.0,67,0.00,,---,0.01,VWS V14.01,2013-04-18 13:59:00,
2013-04-18 10:04:00,63.1,51.6,29.97,SE,139,7.5,18.0,66,0.00,,---,0.01,VWS V14.01,2013-04-18 14:04:00,
2013-04-18 10:09:00,63.5,51.5,29.97,SSE,151,9.0,24.0,65,0.00,,---,0.01,VWS V14.01,2013-04-18 14:09:00,
2013-04-18 10:14:00,63.6,52.0,29.97,SSE,151,6.0,13.5,66,0.00,,---,0.01,VWS V14.01,2013-04-18 14:14:00,
2013-04-18 10:19:00,63.8,52.2,29.96,South,186,9.0,15.0,66,0.00,,---,0.01,VWS V14.01,2013-04-18 14:19:00,
2013-04-18 10:24:00,63.8,52.2,29.96,South,169,6.0,13.5,66,0.00,,---,0.01,VWS V14.01,2013-04-18 14:24:00,
2013-04-18 10:29:00,63.9,52.3,29.96,SSE,153,10.5,15.0,66,0.00,,---,0.01,VWS V14.01,2013-04-18 14:29:00,
2013-04-18 10:34:00,64.3,53.1,29.96,SSW,198,6.0,15.0,67,0.00,,---,0.01,VWS V14.01,2013-04-18 14:34:00,
2013-04-18 10:39:00,65.0,53.4,29.96,SE,130,4.5,15.0,66,0.00,,---,0.01,VWS V14.01,2013-04-18 14:39:00,
2013-04-18 10:44:00,65.6,54.0,29.96,SSE,161,7.5,13.5,66,0.00,,---,0.01,VWS V14.01,2013-04-18 14:44:00,
2013-04-18 10:50:00,66.4,54.3,29.95,SSW,199,4.5,16.5,65,0.00,,---,0.01,VWS V14.01,2013-04-18 14:50:00,
2013-04-18 10:55:00,67.0,54.9,29.95,South,182,6.0,16.5,65,0.00,,---,0.01,VWS V14.01,2013-04-18 14:55:00,
2013-04-18 11:00:00,67.7,54.7,29.95,South,185,9.0,19.5,63,0.00,,---,0.01,VWS V14.01,2013-04-18 15:00:00,
2013-04-18 11:05:00,68.2,55.6,29.94,SSE,159,9.0,16.5,64,0.00,,---,0.01,VWS V14.01,2013-04-18 15:05:00,
2013-04-18 11:10:00,68.5,55.0,29.94,SSW,203,6.0,21.0,62,0.00,,---,0.01,VWS V14.01,2013-04-18 15:10:00,
2013-04-18 11:15:00,68.7,55.2,29.94,WSW,251,7.5,10.5,62,0.00,,---,0.01,VWS V14.01,2013-04-18 15:15:00,
2013-04-18 11:20:00,68.7,55.2,29.94,SSW,204,9.0,25.5,62,0.00,,---,0.01,VWS V14.01,2013-04-18 15:20:00,
2013-04-18 11:25:00,68.9,55.8,29.94,SSW,203,6.0,15.0,63,0.00,,---,0.01,VWS V14.01,2013-04-18 15:25:00,
2013-04-18 11:30:00,69.0,55.5,29.94,SW,224,3.0,15.0,62,0.00,,---,0.01,VWS V14.01,2013-04-18 15:30:00,
2013-04-18 11:35:00,69.1,55.5,29.94,SSW,211,1.5,16.5,62,0.00,,---,0.01,VWS V14.01,2013-04-18 15:35:00,
2013-04-18 11:40:00,69.3,55.3,29.94,SW,229,6.0,18.0,61,0.00,,---,0.01,VWS V14.01,2013-04-18 15:40:00,
2013-04-18 11:45:00,69.8,55.8,29.94,SSW,194,1.5,16.5,61,0.00,,---,0.01,VWS V14.01,2013-04-18 15:45:00,
2013-04-18 11:50:00,70.4,56.3,29.93,SSE,151,9.0,21.0,61,0.00,,---,0.01,VWS V14.01,2013-04-18 15:50:00,
2013-04-18 11:55:00,70.8,55.8,29.93,SSW,210,4.5,18.0,59,0.00,,---,0.01,VWS V14.01,2013-04-18 15:55:00,
2013-04-18 12:00:00,70.7,55.7,29.93,SSW,196,9.0,18.0,59,0.00,,---,0.01,VWS V14.01,2013-04-18 16:00:00,
2013-04-18 12:05:00,70.8,55.8,29.92,SE,137,9.0,19.5,59,0.00,,---,0.01,VWS V14.01,2013-04-18 16:05:00,
2013-04-18 12:10:00,71.0,56.0,29.92,SSW,201,19.5,24.0,59,0.00,,---,0.01,VWS V14.01,2013-04-18 16:10:00,
2013-04-18 12:15:00,70.9,55.4,29.92,South,180,7.5,22.5,58,0.00,,---,0.01,VWS V14.01,2013-04-18 16:15:00,
2013-04-18 12:20:00,70.7,55.2,29.91,SSE,163,7.5,22.5,58,0.00,,---,0.01,VWS V14.01,2013-04-18 16:20:00,
2013-04-18 12:25:00,71.0,55.5,29.91,SSE,156,6.0,24.0,58,0.00,,---,0.01,VWS V14.01,2013-04-18 16:25:00,
2013-04-18 12:30:00,71.5,56.0,29.91,SSW,208,7.5,24.0,58,0.00,,---,0.01,VWS V14.01,2013-04-18 16:30:00,
2013-04-18 12:35:00,71.9,55.9,29.90,South,182,9.0,15.0,57,0.00,,---,0.01,VWS V14.01,2013-04-18 16:35:00,
2013-04-18 12:40:00,72.0,56.0,29.90,West,259,15.0,15.0,57,0.00,,---,0.01,VWS V14.01,2013-04-18 16:40:00,
2013-04-18 12:45:00,72.2,55.7,29.90,SSE,148,9.0,21.0,56,0.00,,---,0.01,VWS V14.01,2013-04-18 16:45:00,
2013-04-18 12:50:00,72.6,55.5,29.89,SE,134,13.5,28.5,55,0.00,,---,0.01,VWS V14.01,2013-04-18 16:50:00,
2013-04-18 12:55:00,73.1,56.0,29.89,SSW,210,9.0,16.5,55,0.00,,---,0.01,VWS V14.01,2013-04-18 16:55:00,
2013-04-18 13:00:00,73.6,56.0,29.89,SW,228,7.5,16.5,54,0.00,,---,0.01,VWS V14.01,2013-04-18 17:00:00,
2013-04-18 13:05:00,74.1,55.9,29.88,SSE,163,12.0,16.5,53,0.00,,---,0.01,VWS V14.01,2013-04-18 17:05:00,
2013-04-18 13:10:00,74.1,55.9,29.88,SW,227,3.0,21.0,53,0.00,,---,0.01,VWS V14.01,2013-04-18 17:10:00,
2013-04-18 13:15:00,74.0,55.8,29.88,SSE,152,7.5,15.0,53,0.00,,---,0.01,VWS V14.01,2013-04-18 17:15:00,
2013-04-18 13:20:00,73.5,54.8,29.88,South,169,15.0,24.0,52,0.00,,---,0.01,VWS V14.01,2013-04-18 17:20:00,
2013-04-18 13:25:00,73.3,54.6,29.88,South,191,4.5,21.0,52,0.00,,---,0.01,VWS V14.01,2013-04-18 17:25:00,
2013-04-18 13:30:00,73.5,54.8,29.88,SSE,167,6.0,21.0,52,0.00,,---,0.01,VWS V14.01,2013-04-18 17:30:00,
2013-04-18 13:35:00,73.9,55.2,29.87,SSE,154,16.5,16.5,52,0.00,,---,0.01,VWS V14.01,2013-04-18 17:35:00,
2013-04-18 13:40:00,73.7,55.0,29.87,South,173,13.5,22.5,52,0.00,,---,0.01,VWS V14.01,2013-04-18 17:40:00,
2013-04-18 13:45:00,73.9,54.7,29.87,SE,145,12.0,19.5,51,0.00,,---,0.01,VWS V14.01,2013-04-18 17:45:00,
2013-04-18 13:50:00,73.8,54.6,29.86,SSE,153,10.5,19.5,51,0.00,,---,0.01,VWS V14.01,2013-04-18 17:50:00,
2013-04-18 13:55:00,73.9,54.1,29.86,SSE,157,9.0,19.5,50,0.00,,---,0.01,VWS V14.01,2013-04-18 17:55:00,
2013-04-18 14:00:00,73.7,54.5,29.86,South,191,6.0,21.0,51,0.00,,---,0.01,VWS V14.01,2013-04-18 18:00:00,
2013-04-18 14:05:00,74.0,54.2,29.86,South,189,16.5,16.5,50,0.00,,---,0.01,VWS V14.01,2013-04-18 18:05:00,
2013-04-18 14:10:00,74.1,54.3,29.86,WSW,253,6.0,18.0,50,0.00,,---,0.01,VWS V14.01,2013-04-18 18:10:00,
2013-04-18 14:15:00,74.7,55.4,29.86,West,267,15.0,15.0,51,0.00,,---,0.01,VWS V14.01,2013-04-18 18:15:00,
2013-04-18 14:20:00,75.4,55.5,29.84,SSW,212,9.0,16.5,50,0.00,,---,0.01,VWS V14.01,2013-04-18 18:20:00,
2013-04-18 14:25:00,75.7,54.6,29.84,South,190,13.5,21.0,48,0.00,,---,0.01,VWS V14.01,2013-04-18 18:25:00,
2013-04-18 14:30:00,75.5,54.5,29.84,SSE,165,10.5,21.0,48,0.00,,---,0.01,VWS V14.01,2013-04-18 18:30:00,
2013-04-18 14:35:00,75.8,54.7,29.84,SSW,194,3.0,18.0,48,0.00,,---,0.01,VWS V14.01,2013-04-18 18:35:00,
2013-04-18 14:40:00,76.2,54.5,29.84,SSE,163,7.5,18.0,47,0.00,,---,0.01,VWS V14.01,2013-04-18 18:40:00,
2013-04-18 14:45:00,76.3,54.6,29.84,SSE,162,4.5,16.5,47,0.00,,---,0.01,VWS V14.01,2013-04-18 18:45:00,
2013-04-18 14:50:00,76.4,54.1,29.84,SSE,153,12.0,24.0,46,0.00,,---,0.01,VWS V14.01,2013-04-18 18:50:00,
2013-04-18 14:55:00,76.5,54.8,29.84,South,183,15.0,21.0,47,0.00,,---,0.01,VWS V14.01,2013-04-18 18:55:00,
2013-04-18 15:00:00,76.1,53.8,29.83,South,182,7.5,22.5,46,0.00,,---,0.01,VWS V14.01,2013-04-18 19:00:00,
2013-04-18 15:05:00,76.1,53.8,29.83,SE,137,16.5,16.5,46,0.00,,---,0.01,VWS V14.01,2013-04-18 19:05:00,
2013-04-18 15:11:00,76.2,53.9,29.83,South,180,6.0,21.0,46,0.00,,---,0.01,VWS V14.01,2013-04-18 19:11:00,
2013-04-18 15:16:00,76.3,54.0,29.82,South,189,6.0,16.5,46,0.00,,---,0.01,VWS V14.01,2013-04-18 19:16:00,
2013-04-18 15:21:00,76.3,54.0,29.82,South,185,13.5,16.5,46,0.00,,---,0.01,VWS V14.01,2013-04-18 19:21:00,
2013-04-18 15:26:00,76.3,54.0,29.82,SSW,213,9.0,22.5,46,0.00,,---,0.01,VWS V14.01,2013-04-18 19:26:00,
2013-04-18 15:31:00,76.3,54.0,29.82,SSE,166,4.5,22.5,46,0.00,,---,0.01,VWS V14.01,2013-04-18 19:31:00,
2013-04-18 15:36:00,76.3,54.0,29.82,SSW,208,10.5,24.0,46,0.00,,---,0.01,VWS V14.01,2013-04-18 19:36:00,
2013-04-18 15:41:00,76.0,54.3,29.82,WSW,254,13.5,24.0,47,0.00,,---,0.01,VWS V14.01,2013-04-18 19:41:00,
2013-04-18 15:47:00,76.1,54.4,29.82,SSE,157,16.5,18.0,47,0.00,,---,0.01,VWS V14.01,2013-04-18 19:47:00,
2013-04-18 15:52:00,75.9,54.2,29.82,SSE,165,9.0,18.0,47,0.00,,---,0.01,VWS V14.01,2013-04-18 19:52:00,
2013-04-18 15:57:00,75.4,53.8,29.82,SSW,199,10.5,22.5,47,0.00,,---,0.01,VWS V14.01,2013-04-18 19:57:00,
2013-04-18 16:02:00,75.0,54.0,29.81,South,190,10.5,19.5,48,0.00,,---,0.01,VWS V14.01,2013-04-18 20:02:00,
2013-04-18 16:07:00,75.2,54.2,29.81,WSW,239,6.0,19.5,48,0.00,,---,0.01,VWS V14.01,2013-04-18 20:07:00,
2013-04-18 16:12:00,75.5,54.5,29.81,SW,231,6.0,6.0,48,0.00,,---,0.01,VWS V14.01,2013-04-18 20:12:00,
2013-04-18 16:17:00,75.5,53.9,29.80,South,184,3.0,18.0,47,0.00,,---,0.01,VWS V14.01,2013-04-18 20:17:00,
2013-04-18 16:22:00,75.3,53.7,29.80,South,189,24.0,24.0,47,0.00,,---,0.01,VWS V14.01,2013-04-18 20:22:00,
2013-04-18 16:27:00,75.2,54.2,29.80,South,189,7.5,24.0,48,0.00,,---,0.01,VWS V14.01,2013-04-18 20:27:00,
2013-04-18 16:32:00,74.9,53.9,29.80,SSE,155,13.5,19.5,48,0.00,,---,0.01,VWS V14.01,2013-04-18 20:32:00,
2013-04-18 16:37:00,74.6,54.2,29.80,SSE,166,9.0,19.5,49,0.00,,---,0.01,VWS V14.01,2013-04-18 20:37:00,
2013-04-18 16:42:00,74.1,54.3,29.80,SSW,198,9.0,21.0,50,0.00,,---,0.01,VWS V14.01,2013-04-18 20:42:00,
2013-04-18 16:47:00,74.0,53.7,29.79,SSW,201,9.0,21.0,49,0.00,,---,0.01,VWS V14.01,2013-04-18 20:47:00,
2013-04-18 16:52:00,73.8,54.0,29.79,SSW,194,9.0,12.0,50,0.00,,---,0.01,VWS V14.01,2013-04-18 20:52:00,
2013-04-18 16:57:00,73.8,54.6,29.79,ESE,123,16.5,22.5,51,0.00,,---,0.01,VWS V14.01,2013-04-18 20:57:00,
2013-04-18 17:02:00,73.6,54.4,29.78,South,177,16.5,16.5,51,0.00,,---,0.01,VWS V14.01,2013-04-18 21:02:00,
2013-04-18 17:07:00,73.6,54.4,29.78,SSE,165,9.0,16.5,51,0.00,,---,0.01,VWS V14.01,2013-04-18 21:07:00,
2013-04-18 17:12:00,73.8,54.6,29.78,SSE,163,7.5,13.5,51,0.00,,---,0.01,VWS V14.01,2013-04-18 21:12:00,
2013-04-18 17:17:00,73.7,54.5,29.78,South,176,4.5,16.5,51,0.00,,---,0.01,VWS V14.01,2013-04-18 21:17:00,
2013-04-18 17:22:00,73.3,54.1,29.78,SSE,158,10.5,21.0,51,0.00,,---,0.01,VWS V14.01,2013-04-18 21:22:00,
2013-04-18 17:27:00,73.0,54.4,29.78,SSW,202,6.0,21.0,52,0.00,,---,0.01,VWS V14.01,2013-04-18 21:27:00,
2013-04-18 17:32:00,72.8,54.2,29.78,SSE,165,15.0,18.0,52,0.00,,---,0.01,VWS V14.01,2013-04-18 21:32:00,
2013-04-18 17:37:00,72.3,54.2,29.78,SE,132,7.5,21.0,53,0.00,,---,0.01,VWS V14.01,2013-04-18 21:37:00,
2013-04-18 17:42:00,71.7,54.2,29.78,SSE,151,10.5,13.5,54,0.00,,---,0.01,VWS V14.01,2013-04-18 21:42:00,
2013-04-18 17:47:00,71.4,54.4,29.78,South,191,7.5,19.5,55,0.00,,---,0.01,VWS V14.01,2013-04-18 21:47:00,
2013-04-18 17:52:00,71.3,54.3,29.78,SSW,210,1.5,13.5,55,0.00,,---,0.01,VWS V14.01,2013-04-18 21:52:00,
2013-04-18 17:57:00,71.0,54.5,29.78,SSW,213,7.5,22.5,56,0.00,,---,0.01,VWS V14.01,2013-04-18 21:57:00,
2013-04-18 18:02:00,70.8,54.3,29.78,South,172,9.0,22.5,56,0.00,,---,0.01,VWS V14.01,2013-04-18 22:02:00,
2013-04-18 18:07:00,70.6,54.6,29.78,SSE,163,9.0,22.5,57,0.00,,---,0.01,VWS V14.01,2013-04-18 22:07:00,
2013-04-18 18:12:00,69.2,54.3,29.78,SE,124,13.5,16.5,59,0.00,,---,0.01,VWS V14.01,2013-04-18 22:12:00,
2013-04-18 18:17:00,68.4,54.4,29.78,SSW,192,6.0,24.0,61,0.00,,---,0.01,VWS V14.01,2013-04-18 22:17:00,
2013-04-18 18:23:00,68.0,54.5,29.78,South,169,3.0,7.5,62,0.00,,---,0.01,VWS V14.01,2013-04-18 22:23:00,
2013-04-18 18:28:00,68.0,54.5,29.78,South,173,4.5,15.0,62,0.00,,---,0.01,VWS V14.01,2013-04-18 22:28:00,
2013-04-18 18:33:00,67.9,54.4,29.78,South,175,6.0,13.5,62,0.00,,---,0.01,VWS V14.01,2013-04-18 22:33:00,
2013-04-18 18:37:00,67.7,54.7,29.78,SE,144,10.5,13.5,63,0.00,,---,0.01,VWS V14.01,2013-04-18 22:37:00,
2013-04-18 18:43:00,67.5,54.5,29.78,South,174,9.0,16.5,63,0.00,,---,0.01,VWS V14.01,2013-04-18 22:43:00,
2013-04-18 18:47:00,67.3,54.3,29.78,SSE,156,7.5,22.5,63,0.00,,---,0.01,VWS V14.01,2013-04-18 22:47:00,
2013-04-18 18:52:00,67.1,54.5,29.78,SSE,151,12.0,15.0,64,0.00,,---,0.01,VWS V14.01,2013-04-18 22:52:00,
2013-04-18 18:58:00,66.9,54.3,29.78,South,182,6.0,22.5,64,0.00,,---,0.01,VWS V14.01,2013-04-18 22:58:00,
2013-04-18 19:03:00,66.8,54.7,29.78,SW,220,7.5,21.0,65,0.00,,---,0.01,VWS V14.01,2013-04-18 23:03:00,
2013-04-18 19:08:00,67.0,54.9,29.78,SSW,201,9.0,21.0,65,0.00,,---,0.01,VWS V14.01,2013-04-18 23:08:00,
2013-04-18 19:13:00,67.1,55.0,29.78,South,191,13.5,19.5,65,0.00,,---,0.01,VWS V14.01,2013-04-18 23:13:00,
2013-04-18 19:18:00,66.8,54.7,29.77,SW,234,6.0,25.5,65,0.00,,---,0.01,VWS V14.01,2013-04-18 23:18:00,
2013-04-18 19:23:00,66.5,54.8,29.77,SSE,165,19.5,25.5,66,0.00,,---,0.01,VWS V14.01,2013-04-18 23:23:00,
2013-04-18 19:28:00,66.2,54.5,29.77,SW,218,7.5,25.5,66,0.00,,---,0.01,VWS V14.01,2013-04-18 23:28:00,
2013-04-18 19:33:00,65.9,54.7,29.77,South,190,16.5,21.0,67,0.00,,---,0.01,VWS V14.01,2013-04-18 23:33:00,
2013-04-18 19:38:00,65.5,54.7,29.77,SSE,165,6.0,30.0,68,0.00,,---,0.01,VWS V14.01,2013-04-18 23:38:00,
2013-04-18 19:43:00,65.3,54.5,29.77,South,169,7.5,13.5,68,0.00,,---,0.01,VWS V14.01,2013-04-18 23:43:00,
2013-04-18 19:48:00,65.1,54.7,29.78,SSW,196,10.5,19.5,69,0.00,,---,0.01,VWS V14.01,2013-04-18 23:48:00,
2013-04-18 19:53:00,64.9,54.9,29.78,SSW,194,10.5,16.5,70,0.00,,---,0.01,VWS V14.01,2013-04-18 23:53:00,
2013-04-18 19:58:00,64.7,54.7,29.78,South,179,10.5,21.0,70,0.00,,---,0.01,VWS V14.01,2013-04-18 23:58:00,
2013-04-18 20:03:00,64.6,54.6,29.76,SSE,161,10.5,25.5,70,0.00,,---,0.01,VWS V14.01,2013-04-19 00:03:00,
2013-04-18 20:08:00,64.5,54.9,29.76,South,184,15.0,25.5,71,0.00,,---,0.01,VWS V14.01,2013-04-19 00:08:00,
2013-04-18 20:13:00,64.4,54.8,29.76,SW,236,10.5,16.5,71,0.00,,---,0.01,VWS V14.01,2013-04-19 00:13:00,
2013-04-18 20:18:00,64.2,55.0,29.76,SSW,210,6.0,25.5,72,0.00,,---,0.01,VWS V14.01,2013-04-19 00:18:00,
2013-04-18 20:23:00,63.9,54.7,29.76,SSE,153,9.0,21.0,72,0.00,,---,0.01,VWS V14.01,2013-04-19 00:23:00,
2013-04-18 20:28:00,63.8,55.0,29.76,SSE,163,7.5,21.0,73,0.00,,---,0.01,VWS V14.01,2013-04-19 00:28:00,
2013-04-18 20:33:00,63.6,54.8,29.76,SSE,166,6.0,16.5,73,0.00,,---,0.01,VWS V14.01,2013-04-19 00:33:00,
2013-04-18 20:38:00,63.5,55.1,29.76,SSW,201,6.0,24.0,74,0.00,,---,0.01,VWS V14.01,2013-04-19 00:38:00,
2013-04-18 20:43:00,63.4,55.0,29.76,South,177,7.5,15.0,74,0.00,,---,0.01,VWS V14.01,2013-04-19 00:43:00,
2013-04-18 20:48:00,63.4,55.0,29.76,SW,224,10.5,21.0,74,0.00,,---,0.01,VWS V14.01,2013-04-19 00:48:00,
2013-04-18 20:53:00,63.5,55.1,29.76,SSW,210,7.5,13.5,74,0.00,,---,0.01,VWS V14.01,2013-04-19 00:53:00,
2013-04-18 20:58:00,63.6,55.2,29.76,West,263,7.5,24.0,74,0.00,,---,0.01,VWS V14.01,2013-04-19 00:58:00,
2013-04-18 21:03:00,63.5,55.4,29.76,SSE,152,9.0,10.5,75,0.00,,---,0.01,VWS V14.01,2013-04-19 01:03:00,
2013-04-18 21:08:00,63.4,55.3,29.76,SSW,202,4.5,16.5,75,0.00,,---,0.01,VWS V14.01,2013-04-19 01:08:00,
2013-04-18 21:13:00,63.4,55.3,29.76,SW,214,4.5,16.5,75,0.00,,---,0.01,VWS V14.01,2013-04-19 01:13:00,
2013-04-18 21:18:00,63.6,55.5,29.77,SSW,195,4.5,28.5,75,0.00,,---,0.01,VWS V14.01,2013-04-19 01:18:00,
2013-04-18 21:23:00,63.6,55.5,29.77,SW,230,6.0,10.5,75,0.00,,---,0.01,VWS V14.01,2013-04-19 01:23:00,
2013-04-18 21:28:00,63.7,55.6,29.77,South,191,10.5,24.0,75,0.00,,---,0.01,VWS V14.01,2013-04-19 01:28:00,
2013-04-18 21:33:00,63.8,55.7,29.76,South,182,7.5,10.5,75,0.00,,---,0.01,VWS V14.01,2013-04-19 01:33:00,
2013-04-18 21:38:00,63.9,55.8,29.76,South,169,6.0,18.0,75,0.00,,---,0.01,VWS V14.01,2013-04-19 01:38:00,
2013-04-18 21:43:00,63.9,55.8,29.76,South,173,6.0,9.0,75,0.00,,---,0.01,VWS V14.01,2013-04-19 01:43:00,
2013-04-18 21:48:00,64.0,55.9,29.76,SSW,213,4.5,21.0,75,0.00,,---,0.01,VWS V14.01,2013-04-19 01:48:00,
2013-04-18 21:53:00,63.9,55.8,29.76,SW,218,13.5,16.5,75,0.00,,---,0.01,VWS V14.01,2013-04-19 01:53:00,
2013-04-18 21:58:00,64.0,55.9,29.76,South,175,9.0,19.5,75,0.00,,---,0.01,VWS V14.01,2013-04-19 01:58:00,
2013-04-18 22:03:00,63.9,55.8,29.76,South,177,7.5,15.0,75,0.00,,---,0.01,VWS V14.01,2013-04-19 02:03:00,
2013-04-18 22:08:00,63.9,56.2,29.76,SSE,164,7.5,15.0,76,0.00,,---,0.01,VWS V14.01,2013-04-19 02:08:00,
2013-04-18 22:13:00,63.9,56.2,29.76,South,173,3.0,15.0,76,0.00,,---,0.01,VWS V14.01,2013-04-19 02:13:00,
2013-04-18 22:18:00,63.9,56.2,29.75,South,170,6.0,15.0,76,0.00,,---,0.01,VWS V14.01,2013-04-19 02:18:00,
2013-04-18 22:23:00,64.1,56.4,29.75,South,169,7.5,15.0,76,0.00,,---,0.01,VWS V14.01,2013-04-19 02:23:00,
2013-04-18 22:28:00,64.3,56.2,29.75,SSW,201,9.0,19.5,75,0.00,,---,0.01,VWS V14.01,2013-04-19 02:28:00,
2013-04-18 22:33:00,64.3,56.2,29.75,SSE,163,4.5,15.0,75,0.00,,---,0.01,VWS V14.01,2013-04-19 02:33:00,
2013-04-18 22:38:00,64.3,56.2,29.75,SSE,165,4.5,15.0,75,0.00,,---,0.01,VWS V14.01,2013-04-19 02:38:00,
2013-04-18 22:43:00,64.4,56.3,29.75,South,189,4.5,13.5,75,0.00,,---,0.01,VWS V14.01,2013-04-19 02:43:00,
2013-04-18 22:48:00,64.5,56.4,29.74,SSE,154,7.5,15.0,75,0.00,,---,0.01,VWS V14.01,2013-04-19 02:48:00,
2013-04-18 22:53:00,64.7,56.6,29.74,SSE,167,9.0,16.5,75,0.00,,---,0.01,VWS V14.01,2013-04-19 02:53:00,
2013-04-18 22:58:00,64.7,56.6,29.74,South,191,6.0,16.5,75,0.00,,---,0.01,VWS V14.01,2013-04-19 02:58:00,
2013-04-18 23:03:00,64.8,56.7,29.73,SSW,203,7.5,13.5,75,0.00,,---,0.01,VWS V14.01,2013-04-19 03:03:00,
2013-04-18 23:08:00,64.8,56.7,29.73,South,184,3.0,13.5,75,0.00,,---,0.01,VWS V14.01,2013-04-19 03:08:00,
2013-04-18 23:13:00,64.8,56.7,29.73,South,184,4.5,10.5,75,0.00,,---,0.01,VWS V14.01,2013-04-19 03:13:00,
2013-04-18 23:19:00,64.9,56.8,29.73,SSW,201,10.5,16.5,75,0.00,,---,0.01,VWS V14.01,2013-04-19 03:19:00,
2013-04-18 23:24:00,65.1,56.6,29.73,South,178,7.5,10.5,74,0.00,,---,0.01,VWS V14.01,2013-04-19 03:24:00,
2013-04-18 23:29:00,65.3,56.8,29.73,South,179,4.5,16.5,74,0.00,,---,0.01,VWS V14.01,2013-04-19 03:29:00,
2013-04-18 23:34:00,65.3,56.8,29.72,SSE,158,6.0,16.5,74,0.00,,---,0.01,VWS V14.01,2013-04-19 03:34:00,
2013-04-18 23:39:00,65.5,56.6,29.72,SSW,201,4.5,21.0,73,0.00,,---,0.01,VWS V14.01,2013-04-19 03:39:00,
2013-04-18 23:44:00,65.5,57.0,29.72,South,173,3.0,16.5,74,0.00,,---,0.01,VWS V14.01,2013-04-19 03:44:00,
2013-04-18 23:49:00,65.6,56.7,29.71,South,169,10.5,18.0,73,0.00,,---,0.01,VWS V14.01,2013-04-19 03:49:00,
2013-04-18 23:54:00,65.7,56.8,29.71,SW,227,7.5,12.0,73,0.00,,---,0.01,VWS V14.01,2013-04-19 03:54:00,
2013-04-18 23:59:00,65.7,56.8,29.71,South,176,4.5,16.5,73,0.00,,---,0.01,VWS V14.01,2013-04-19 03:59:00,